FW3835 Weather Reports


Display with metric or nautical units.
time (UTC)temp
F
wind
direction
speed
MPH
gust
MPH
rain 1hr
in
rain 24hr
in
rain mn
in
humidity
%
barometer
mb
20260503231523 68 213 3.0 11.0 0.00 0.00 0.00 19 1000.3
20260503230011 70 254 2.0 10.0 0.00 0.00 0.00 18 1000.5
20260503224517 70 274 2.0 10.0 0.00 0.00 0.00 18 1000.9
20260503223018 70 303 4.0 10.0 0.00 0.00 0.00 18 1001.2
20260503221529 69 273 3.0 11.0 0.00 0.00 0.00 19 1001.7
20260503220028 71 248 3.0 7.0 0.00 0.00 0.00 19 1001.9
20260503214514 71 282 3.0 9.0 0.00 0.00 0.00 19 1002.3
20260503213017 69 271 2.0 11.0 0.00 0.00 0.00 20 1002.6
20260503211524 69 291 2.0 9.0 0.00 0.00 0.00 21 1003.1
20260503210026 69 271 5.0 13.0 0.00 0.00 0.00 17 1003.2
20260503204526 69 252 2.0 10.0 0.00 0.00 0.00 16 1003.7
20260503203016 67 261 3.0 8.0 0.00 0.00 0.00 17 1003.9
20260503201518 69 242 3.0 14.0 0.00 0.00 0.00 15 1004.2
20260503200024 68 278 3.0 9.0 0.00 0.00 0.00 16 1004.5
20260503194508 68 213 2.0 7.0 0.00 0.00 0.00 18 1004.8
20260503193014 67 240 3.0 7.0 0.00 0.00 0.00 19 1005.4
20260503191518 66 275 3.0 9.0 0.00 0.00 0.00 19 1005.8
20260503190022 66 298 4.0 10.0 0.00 0.00 0.00 19 1006.0
20260503184524 65 284 3.0 15.0 0.00 0.00 0.00 20 1006.5
20260503183014 64 239 4.0 13.0 0.00 0.00 0.00 20 1006.7
20260503181514 64 196 3.0 9.0 0.00 0.00 0.00 20 1007.0
20260503180021 63 202 3.0 7.0 0.00 0.00 0.00 20 1007.3
20260503174524 63 230 3.0 12.0 0.00 0.00 0.00 21 1007.4
20260503173028 63 303 3.0 7.0 0.00 0.00 0.00 21 1007.6
20260503171511 62 262 2.0 11.0 0.00 0.00 0.00 23 1007.9
20260503081506 38 28 0.0 0.0 0.00 0.00 0.00 67 1007.4
20260503071518 40 30 0.0 0.0 0.00 0.00 0.00 66 1007.2
20260503054518 44 30 0.0 0.0 0.00 0.00 0.00 59 1007.3
20260503053016 45 30 0.0 0.0 0.00 0.00 0.00 57 1007.1
20260503051517 47 30 0.0 0.0 0.00 0.00 0.00 56 1007.1
20260503050028 47 30 0.0 1.0 0.00 0.00 0.00 56 1006.9
20260503044522 48 30 0.0 2.0 0.00 0.00 0.00 55 1007.0
20260503043019 48 29 1.0 3.0 0.00 0.00 0.00 54 1007.1
20260503041516 49 30 0.0 3.0 0.00 0.00 0.00 52 1007.1
20260503040019 50 34 1.0 6.0 0.00 0.00 0.00 52 1007.0
20260503034522 51 11 2.0 7.0 0.00 0.00 0.00 52 1006.9
20260503033018 53 19 1.0 9.0 0.00 0.00 0.00 47 1007.0
20260503031522 54 322 1.0 6.0 0.00 0.00 0.00 41 1006.8
20260503030024 55 49 3.0 6.0 0.00 0.00 0.00 39 1006.6
20260503024522 55 53 4.0 8.0 0.00 0.00 0.00 39 1006.6
20260503023023 55 57 4.0 9.0 0.00 0.00 0.00 39 1006.4
20260503021525 55 41 3.0 6.0 0.00 0.00 0.00 38 1006.1
20260503020016 56 91 3.0 9.0 0.00 0.00 0.00 38 1005.8
20260503014520 56 116 2.0 6.0 0.00 0.00 0.00 38 1005.7
20260503013003 57 109 2.0 6.0 0.00 0.00 0.00 37 1005.8
20260503011506 57 98 2.0 5.0 0.00 0.00 0.00 37 1005.9
20260503010010 58 155 1.0 3.0 0.00 0.00 0.00 35 1006.0
20260503004541 59 155 1.0 3.0 0.00 0.00 0.00 33 1006.1
20260503003018 59 156 1.0 2.0 0.00 0.00 0.00 31 1006.4
20260503001506 60 156 1.0 3.0 0.00 0.00 0.00 32 1006.5
20260503000009 60 157 1.0 3.0 0.00 0.00 0.00 30 1006.6
20260502234524 61 157 1.0 6.0 0.00 0.00 0.00 29 1006.8
20260502233015 61 181 1.0 4.0 0.00 0.00 0.00 29 1006.9